Date String (YYYY-MM-DD hh:mm:ss) UTC,Instrument flags,absolute air pressure of the measurement (hPa),sample flow rate (lpm),inlet stack bypass flow (lpm),air temperature of the measurement (°C),ambient temperature measured by the external sensor (°C),aerosol sample conditioner tube jacket temperature (°C),OPC LED temperature (°C),internal box temperature (°C),relative humidity of the measurement (%),span deviation,mass concentration of particles derived from Lorenz-Mie calculation of OPC scattering (μg/m³),mass concentration of particles derived from Lorenz-Mie calculation of OPC scattering (μg/m³),mass concentration of particles derived from Lorenz-Mie calculation of OPC scattering (μg/m³)
DateTimeUTC,F1_M11,P_M11,Q1_M11,Q2_M11,T1_M11,T2_M11,T3_M11,T4_M11,T5_M11,U1_M11,ZSPAN_M11,X0_M11,X2_M11,X1_M11
2023-06-08 19:00:00,SystemResetWarning,0830.3,5.01,000.00,029.4,025.6,000.0,037.8,030.9,28.3,0000.0,0006.01,0003.24,0002.71
2023-06-08 19:01:00,SystemResetWarning,0830.3,5.01,000.00,029.4,025.5,000.0,037.7,030.9,28.6,0000.0,0006.09,0003.23,0002.70
2023-06-08 19:02:00,SystemResetWarning,0830.3,5.01,000.00,029.3,025.8,000.0,037.8,030.6,28.4,0000.0,0006.60,0003.24,0002.71
2023-06-08 19:03:00,SystemResetWarning,0830.3,5.00,000.00,029.2,026.1,000.0,037.8,030.6,29.3,0000.0,0006.66,0003.25,0002.72
2023-06-08 19:04:00,SystemResetWarning,0830.3,4.99,000.00,029.2,026.5,000.0,037.8,030.6,28.9,0000.0,0006.72,0003.24,0002.72
2023-06-08 19:05:00,SystemResetWarning,0830.3,5.00,000.00,029.2,026.8,000.0,037.8,030.7,28.6,0000.0,0006.69,0003.23,0002.72
2023-06-08 19:06:00,SystemResetWarning,0830.3,5.00,000.00,029.2,027.1,000.0,037.8,030.8,28.5,0000.0,0006.18,0003.21,0002.71
2023-06-08 19:07:00,SystemResetWarning,0830.3,5.00,000.00,029.3,027.3,000.0,037.8,030.8,27.8,0000.0,0005.50,0003.19,0002.71
2023-06-08 19:08:00,SystemResetWarning,0830.3,5.00,000.00,029.3,027.5,000.0,037.8,030.9,28.3,0000.0,0005.43,0003.17,0002.72
2023-06-08 19:09:00,SystemResetWarning,0830.3,5.00,000.00,029.3,027.7,000.0,037.8,030.9,28.8,0000.0,0005.56,0003.16,0002.71
2023-06-08 19:10:00,SystemResetWarning,0830.3,5.00,000.00,029.4,027.9,000.0,037.8,031.0,28.9,0000.0,0005.61,0003.17,0002.71
2023-06-08 19:11:00,SystemResetWarning,0830.3,4.99,000.00,029.4,027.5,000.0,037.8,031.1,29.3,0000.0,0005.71,0003.17,0002.70
2023-06-08 19:12:00,SystemResetWarning,0830.3,5.00,000.00,029.4,025.8,000.0,037.8,031.1,28.5,0000.0,0005.95,0003.21,0002.71
2023-06-08 19:13:00,SystemResetWarning,0830.3,5.00,000.00,029.4,025.4,000.0,037.7,031.0,28.7,0000.0,0005.43,0003.22,0002.73
2023-06-08 19:14:00,SystemResetWarning,0830.2,5.01,000.00,029.3,025.6,000.0,037.7,030.7,28.6,0000.0,0005.45,0003.23,0002.72
2023-06-08 19:15:00,SystemResetWarning,0830.3,5.00,000.00,029.3,025.9,000.0,037.8,030.6,29.3,0000.0,0005.09,0003.20,0002.73
2023-06-08 19:16:00,SystemResetWarning,0830.2,5.00,000.00,029.2,026.3,000.0,037.8,030.6,29.1,0000.0,0005.08,0003.21,0002.73
2023-06-08 19:17:00,SystemResetWarning,0830.2,5.00,000.00,029.2,026.6,000.0,037.8,030.7,29.5,0000.0,0005.05,0003.21,0002.73
2023-06-08 19:18:00,SystemResetWarning,0830.2,5.00,000.00,029.2,026.9,000.0,037.8,030.7,27.9,0000.0,0004.99,0003.20,0002.71
2023-06-08 19:19:00,SystemResetWarning,0830.2,5.00,000.00,029.3,027.2,000.0,037.8,030.7,28.0,0000.0,0005.12,0003.20,0002.72
2023-06-08 19:20:00,SystemResetWarning,0830.2,5.00,000.00,029.3,027.4,000.0,037.8,030.8,28.2,0000.0,0005.04,0003.21,0002.73
2023-06-08 19:21:00,SystemResetWarning,0830.2,5.00,000.00,029.3,027.6,000.0,037.8,030.9,28.6,0000.0,0005.00,0003.21,0002.72
2023-06-08 19:22:00,SystemResetWarning,0830.2,5.00,000.00,029.3,027.8,000.0,037.8,030.9,27.5,0000.0,0004.86,0003.20,0002.70
2023-06-08 19:23:00,SystemResetWarning,0830.2,4.99,000.00,029.4,027.8,000.0,037.8,031.0,27.5,0000.0,0004.73,0003.18,0002.69
2023-06-08 19:24:00,SystemResetWarning,0830.1,5.00,000.00,029.4,026.2,000.0,037.8,031.0,27.3,0000.0,0004.61,0003.16,0002.68
2023-06-08 19:25:00,SystemResetWarning,0830.1,5.01,000.00,029.4,025.3,000.0,037.8,031.0,27.9,0000.0,0004.61,0003.15,0002.68
2023-06-08 19:26:00,SystemResetWarning,0830.1,5.01,000.00,029.3,025.5,000.0,037.7,030.8,28.6,0000.0,0004.81,0003.17,0002.68
2023-06-08 19:27:00,SystemResetWarning,0830.1,4.99,000.00,029.2,025.8,000.0,037.7,030.7,26.3,0000.0,0004.85,0003.18,0002.66
2023-06-08 19:28:00,SystemResetWarning,0830.1,5.01,000.00,029.2,026.1,000.0,037.7,030.7,26.0,0000.0,0004.83,0003.18,0002.66
2023-06-08 19:29:00,SystemResetWarning,0830.2,4.99,000.00,029.2,026.5,000.0,037.8,030.7,26.7,0000.0,0004.93,0003.19,0002.66
2023-06-08 19:30:00,SystemResetWarning,0830.1,4.99,000.00,029.2,026.8,000.0,037.8,030.7,26.9,0000.0,0005.01,0003.17,0002.66
2023-06-08 19:31:00,SystemResetWarning,0830.1,5.01,000.00,029.2,027.1,000.0,037.8,030.8,28.0,0000.0,0005.17,0003.16,0002.65
2023-06-08 19:32:00,SystemResetWarning,0830.1,5.01,000.00,029.3,027.4,000.0,037.8,030.8,26.9,0000.0,0005.15,0003.15,0002.63
2023-06-08 19:33:00,SystemResetWarning,0830.1,5.01,000.00,029.3,027.6,000.0,037.8,030.8,26.7,0000.0,0005.10,0003.12,0002.61
2023-06-08 19:34:00,SystemResetWarning,0830.2,5.00,000.00,029.3,027.7,000.0,037.8,030.9,26.1,0000.0,0005.13,0003.12,0002.61
2023-06-08 19:35:00,SystemResetWarning,0830.1,4.99,000.00,029.3,027.4,000.0,037.8,031.0,25.6,0000.0,0005.35,0003.13,0002.61
2023-06-08 19:36:00,SystemResetWarning,0830.1,4.99,000.00,029.3,025.7,000.0,037.7,030.9,25.3,0000.0,0005.40,0003.13,0002.60
2023-06-08 19:37:00,SystemResetWarning,0830.1,5.01,000.00,029.3,025.2,000.0,037.7,030.9,25.7,0000.0,0005.35,0003.12,0002.59
2023-06-08 19:38:00,SystemResetWarning,0830.1,5.01,000.00,029.3,025.5,000.0,037.7,030.8,26.2,0000.0,0005.51,0003.13,0002.60
2023-06-08 19:39:00,SystemResetWarning,0830.1,5.00,000.00,029.2,025.8,000.0,037.7,030.6,27.7,0000.0,0005.55,0003.14,0002.59
2023-06-08 19:40:00,SystemResetWarning,0830.1,5.00,000.00,029.2,026.2,000.0,037.7,030.6,28.5,0000.0,0005.53,0003.14,0002.58
2023-06-08 19:41:00,SystemResetWarning,0830.1,5.01,000.00,029.2,026.6,000.0,037.7,030.7,27.7,0000.0,0005.21,0003.12,0002.56
2023-06-08 19:42:00,SystemResetWarning,0830.1,5.00,000.00,029.2,026.9,000.0,037.7,030.7,27.9,0000.0,0004.88,0003.10,0002.54
2023-06-08 19:43:00,SystemResetWarning,0830.1,4.99,000.00,029.2,027.2,000.0,037.7,030.7,26.9,0000.0,0004.84,0003.10,0002.55
2023-06-08 19:44:00,SystemResetWarning,0830.1,4.99,000.00,029.2,027.4,000.0,037.8,030.8,27.5,0000.0,0005.08,0003.13,0002.55
2023-06-08 19:45:00,SystemResetWarning,0830.1,5.00,000.00,029.3,027.6,000.0,037.8,030.8,28.2,0000.0,0005.66,0003.17,0002.55
2023-06-08 19:46:00,SystemResetWarning,0830.1,5.00,000.00,029.3,027.7,000.0,037.8,030.8,27.9,0000.0,0005.96,0003.17,0002.55
2023-06-08 19:47:00,SystemResetWarning,0830.1,5.00,000.00,029.3,027.9,000.0,037.8,030.9,27.0,0000.0,0005.93,0003.17,0002.54
2023-06-08 19:48:00,SystemResetWarning,0830.1,5.00,000.00,029.3,028.0,000.0,037.8,030.9,26.9,0000.0,0005.91,0003.18,0002.54
2023-06-08 19:49:00,SystemResetWarning,0830.1,5.00,000.00,029.4,027.4,000.0,037.8,031.0,27.0,0000.0,0005.83,0003.16,0002.53
2023-06-08 19:50:00,SystemResetWarning,0830.1,5.00,000.00,029.4,025.6,000.0,037.8,030.9,26.7,0000.0,0006.38,0003.14,0002.53
2023-06-08 19:51:00,SystemResetWarning,0830.1,5.02,000.00,029.4,025.3,000.0,037.7,030.9,26.4,0000.0,0006.87,0003.14,0002.55
2023-06-08 19:52:00,SystemResetWarning,0830.1,5.00,000.00,029.3,025.5,000.0,037.7,030.7,26.8,0000.0,0007.19,0003.13,0002.55
2023-06-08 19:53:00,SystemResetWarning,0830.1,4.99,000.00,029.2,025.9,000.0,037.7,030.6,28.5,0000.0,0007.43,0003.16,0002.58
2023-06-08 19:54:00,SystemResetWarning,0830.1,5.00,000.00,029.2,026.3,000.0,037.7,030.6,27.2,0000.0,0007.52,0003.19,0002.62
2023-06-08 19:55:00,SystemResetWarning,0830.1,5.01,000.00,029.2,026.6,000.0,037.7,030.7,26.9,0000.0,0007.47,0003.20,0002.66
2023-06-08 19:56:00,SystemResetWarning,0830.1,5.00,000.00,029.2,026.9,000.0,037.7,030.7,27.6,0000.0,0007.01,0003.17,0002.68
2023-06-08 19:57:00,SystemResetWarning,0830.1,5.00,000.00,029.2,027.2,000.0,037.8,030.8,27.8,0000.0,0006.55,0003.19,0002.70
2023-06-08 19:58:00,SystemResetWarning,0830.0,4.99,000.00,029.3,027.4,000.0,037.8,030.8,28.4,0000.0,0006.52,0003.19,0002.70
2023-06-08 19:59:00,SystemResetWarning,0830.1,4.99,000.00,029.3,027.6,000.0,037.8,030.9,27.5,0000.0,0006.43,0003.17,0002.71
